Weather History for Carmi, IL

Change the Weather History Date:

Tuesday, February 21, 2012

  Actual Average (KEVV) Record (KEVV)
Temperature  
Mean Temperature 45 °F 38 °F  
Max Temperature 51 °F 48 °F 72 °F (1922)
Min Temperature 39 °F 29 °F -3 °F (1963)
Degree Days  
Heating Degree Days 20 27  
Month to date heating degree days 618  
Since 1 July heating degree days 3397  
Cooling Degree Days 0 0  
Month to date cooling degree days 0  
Year to date cooling degree days 0  
Moisture  
Dew Point 38 °F    
Average Humidity 73    
Maximum Humidity 91    
Minimum Humidity 63    
Precipitation  
Precipitation 0.07 in 0.10 in 1.36 in (1950)
Month to date precipitation 2.39  
Year to date precipitation 5.49  
Snow  
Snow 0.00 in 0.10 in 0.60 in (1965)
Month to date snowfall 3.0  
Since 1 July snowfall 9.9  
Snow Depth -    
Sea Level Pressure  
Sea Level Pressure 29.87 in    
Wind  
Wind Speed 14 mph (SSW)    
Max Wind Speed 22 mph    
Max Gust Speed 32 mph    
Visibility 10 miles    
Events Rain    
T = Trace of Precipitation, MM = Missing Value Source: NWS Daily Summary

Daily Weather History Graph

Daily Weather History Graph

Search for Another Location

Airport:

Trip Planner

Search our weather history database for the weather conditions in past years. The results will help you decide how hot, cold, wet, or windy it might be!

Date:

Astronomy

Feb. 21, 2012 Rise Set
Actual Time 6:35 AM CST 5:37 PM CST
Civil Twilight 6:09 AM CST 6:03 PM CST
Nautical Twilight 5:38 AM CST 6:34 PM CST
Astronomical Twilight 5:07 AM CST 7:05 PM CST
Moon 6:04 AM CST (2/21) 5:42 PM CST (2/21)
Length of Visible Light 11h 54m
Length of Day
11h 01m
Waning Crescent, 0% of the Moon is Illuminated
Feb 21
Waning Crescent
Feb 21
New
Feb 29
First Quarter
Mar 8
Full
Mar 14
Last Quarter

Hourly Weather History & Observations

Time (CST) Temp. Windchill Dew Point Humidity Pressure Visibility Wind Dir Wind Speed Gust Speed Precip Events Conditions
12:15 AM 41.4 °F 34.7 °F 32.0 °F 69% 29.92 in 10.0 mi SE 11.5 mph - N/A   Overcast
12:35 AM 42.1 °F 35.2 °F 32.0 °F 67% 29.90 in 10.0 mi SE 12.7 mph - N/A   Overcast
12:55 AM 41.9 °F 34.6 °F 32.2 °F 68% 29.87 in 10.0 mi SE 13.8 mph - N/A   Overcast
1:15 AM 42.3 °F 35.9 °F 32.4 °F 68% 29.85 in 10.0 mi SE 11.5 mph - N/A   Overcast
1:35 AM 42.3 °F 37.3 °F 32.9 °F 69% 29.87 in 10.0 mi South 8.1 mph - N/A   Drizzle
1:55 AM 41.9 °F 35.9 °F 35.2 °F 77% 29.87 in 5.0 mi South 10.4 mph 18.4 mph 0.04 in Rain Heavy Rain
2:15 AM 42.3 °F 34.8 °F 36.1 °F 79% 29.83 in 10.0 mi SE 15.0 mph - 0.03 in Rain Light Rain
2:35 AM 42.8 °F 34.0 °F 37.2 °F 81% 29.75 in 10.0 mi SE 20.7 mph 25.3 mph 0.03 in   Overcast
2:55 AM 43.7 °F 36.3 °F 38.3 °F 81% 29.77 in 10.0 mi South 16.1 mph 20.7 mph 0.03 in   Scattered Clouds
3:15 AM 43.7 °F 35.7 °F 38.3 °F 81% 29.76 in 10.0 mi South 18.4 mph - N/A   Clear
3:35 AM 43.9 °F 36.2 °F 38.3 °F 81% 29.77 in 10.0 mi South 17.3 mph - N/A   Clear
3:55 AM 44.1 °F 36.2 °F 38.5 °F 81% 29.77 in 10.0 mi South 18.4 mph 25.3 mph N/A   Scattered Clouds
4:15 AM 44.8 °F 37.1 °F 39.4 °F 81% 29.76 in 10.0 mi South 18.4 mph 25.3 mph N/A   Overcast
4:35 AM 44.8 °F 37.4 °F 39.9 °F 83% 29.76 in 10.0 mi South 17.3 mph - N/A   Overcast
4:55 AM 45.3 °F 38.4 °F 40.1 °F 82% 29.77 in 10.0 mi South 16.1 mph 21.9 mph N/A   Overcast
5:15 AM 47.3 °F - 40.3 °F 77% 29.78 in 10.0 mi SSW 21.9 mph 32.2 mph N/A   Overcast
5:35 AM 47.3 °F - 40.5 °F 77% 29.79 in 10.0 mi SW 18.4 mph 28.8 mph N/A Rain Light Rain
5:55 AM 46.8 °F - 40.3 °F 78% 29.80 in 10.0 mi SW 21.9 mph - N/A Rain Light Rain
6:15 AM 47.3 °F - 39.2 °F 73% 29.82 in 10.0 mi SW 18.4 mph 23.0 mph N/A   Overcast
6:35 AM 46.8 °F - 39.4 °F 75% 29.83 in 10.0 mi SW 18.4 mph 25.3 mph N/A   Overcast
6:55 AM 46.8 °F - 39.0 °F 74% 29.83 in 10.0 mi SW 17.3 mph - N/A   Overcast
7:15 AM 46.4 °F 41.1 °F 38.7 °F 74% 29.84 in 10.0 mi SW 11.5 mph 20.7 mph N/A   Overcast
7:35 AM 46.4 °F 40.4 °F 38.3 °F 73% 29.85 in 10.0 mi SW 13.8 mph - N/A   Overcast
7:55 AM 46.6 °F - 37.9 °F 72% 29.87 in 10.0 mi SW 12.7 mph 19.6 mph N/A   Overcast
8:15 AM 46.6 °F - 37.6 °F 71% 29.89 in 10.0 mi SW 13.8 mph - N/A   Overcast
8:35 AM 46.6 °F - 37.0 °F 69% 29.89 in 10.0 mi SW 12.7 mph - N/A   Overcast
8:55 AM 46.8 °F - 37.6 °F 70% 29.89 in 10.0 mi SSW 11.5 mph 19.6 mph N/A   Overcast
9:15 AM 47.5 °F - 38.3 °F 70% 29.89 in 10.0 mi SSW 10.4 mph 16.1 mph N/A   Overcast
9:35 AM 48.0 °F - 38.3 °F 69% 29.90 in 10.0 mi SSW 15.0 mph 18.4 mph N/A   Overcast
9:55 AM 48.2 °F - 37.6 °F 67% 29.90 in 10.0 mi SW 18.4 mph 24.2 mph N/A   Overcast
10:15 AM 48.4 °F - 37.8 °F 67% 29.90 in 10.0 mi SW 17.3 mph - N/A   Overcast
10:35 AM 48.9 °F - 38.3 °F 67% 29.90 in 10.0 mi SW 15.0 mph 20.7 mph N/A   Overcast
10:55 AM 48.6 °F - 37.9 °F 67% 29.91 in 10.0 mi SW 15.0 mph 19.6 mph N/A   Overcast
11:15 AM 48.6 °F - 38.5 °F 68% 29.92 in 10.0 mi SSW 17.3 mph - N/A   Overcast
11:35 AM 49.1 °F - 38.5 °F 67% 29.92 in 10.0 mi SW 15.0 mph 26.5 mph N/A   Overcast
11:55 AM 49.3 °F - 38.7 °F 67% 29.92 in 10.0 mi SW 13.8 mph 23.0 mph N/A   Overcast
12:15 PM 49.6 °F - 38.8 °F 66% 29.91 in 10.0 mi SW 18.4 mph 24.2 mph N/A   Overcast
12:35 PM 49.6 °F - 38.7 °F 66% 29.91 in 10.0 mi SW 15.0 mph 21.9 mph N/A   Overcast
12:55 PM 49.5 °F - 38.7 °F 66% 29.91 in 10.0 mi SW 16.1 mph 26.5 mph N/A   Overcast
1:15 PM 50.2 °F - 38.7 °F 65% 29.89 in 10.0 mi SW 17.3 mph 26.5 mph N/A   Overcast
1:35 PM 50.0 °F - 38.5 °F 65% 29.90 in 10.0 mi SW 17.3 mph 23.0 mph N/A   Overcast
1:55 PM 50.2 °F - 38.8 °F 65% 29.89 in 10.0 mi SW 18.4 mph 23.0 mph N/A   Overcast
2:15 PM 50.0 °F - 38.8 °F 66% 29.90 in 10.0 mi SW 15.0 mph 21.9 mph N/A   Overcast
2:35 PM 50.2 °F - 38.7 °F 65% 29.89 in 10.0 mi SSW 13.8 mph 21.9 mph N/A   Overcast
2:55 PM 50.9 °F - 39.2 °F 64% 29.89 in 10.0 mi SW 12.7 mph - N/A   Overcast
3:15 PM 51.1 °F - 39.4 °F 64% 29.89 in 10.0 mi SW 12.7 mph - N/A   Overcast
3:35 PM 51.3 °F - 39.4 °F 64% 29.88 in 10.0 mi SW 15.0 mph 19.6 mph N/A   Mostly Cloudy
3:55 PM 51.8 °F - 39.4 °F 63% 29.89 in 10.0 mi SW 13.8 mph - N/A   Mostly Cloudy
4:15 PM 51.4 °F - 39.6 °F 64% 29.89 in 10.0 mi SW 9.2 mph - N/A   Mostly Cloudy
4:35 PM 51.1 °F - 39.6 °F 65% 29.89 in 10.0 mi SW 8.1 mph - N/A   Scattered Clouds
4:55 PM 50.7 °F - 39.9 °F 67% 29.90 in 10.0 mi SW 9.2 mph - N/A   Clear
5:15 PM 51.1 °F - 39.6 °F 65% 29.90 in 10.0 mi SW 9.2 mph - N/A   Clear
5:55 PM 47.3 °F - 38.7 °F 72% 29.91 in 10.0 mi WSW 4.6 mph - N/A   Clear
6:15 PM 46.4 °F 45.2 °F 38.3 °F 73% 29.91 in 10.0 mi SW 3.5 mph - N/A   Clear
6:35 PM 46.9 °F - 37.9 °F 71% 29.90 in 10.0 mi South 3.5 mph - N/A   Clear
6:55 PM 42.8 °F 41.1 °F 38.1 °F 84% 29.91 in 10.0 mi South 3.5 mph - N/A   Clear
7:15 PM 41.4 °F 37.6 °F 37.9 °F 88% 29.91 in 10.0 mi SSE 5.8 mph - N/A   Clear
7:35 PM 41.4 °F 37.6 °F 37.9 °F 88% 29.91 in 10.0 mi South 5.8 mph - N/A   Clear
7:55 PM 40.1 °F - 37.6 °F 91% 29.90 in 10.0 mi Calm Calm - N/A   Clear
8:15 PM 39.4 °F 37.2 °F 37.0 °F 91% 29.90 in 10.0 mi South 3.5 mph - N/A   Clear
8:35 PM 39.7 °F - 37.4 °F 91% 29.91 in 10.0 mi Calm Calm - N/A   Clear
8:55 PM 39.0 °F 36.8 °F 36.7 °F 91% 29.90 in 10.0 mi South 3.5 mph - N/A   Clear
9:15 PM 37.4 °F 32.1 °F 35.6 °F 93% 29.90 in 10.0 mi South 6.9 mph - N/A   Clear
9:35 PM 36.3 °F 30.8 °F 34.5 °F 93% 29.90 in 10.0 mi South 6.9 mph - N/A   Clear
9:55 PM 37.6 °F 31.0 °F 35.6 °F 93% 29.90 in 10.0 mi South 9.2 mph - N/A   Clear
10:15 PM 37.9 °F 32.1 °F 35.6 °F 91% 29.89 in 10.0 mi South 8.1 mph - N/A   Clear
10:35 PM 38.3 °F 32.5 °F 35.8 °F 91% 29.88 in 10.0 mi SSW 8.1 mph - N/A   Clear
10:55 PM 42.8 °F 36.6 °F 36.7 °F 79% 29.88 in 10.0 mi SSW 11.5 mph - N/A   Clear
11:15 PM 43.7 °F 38.6 °F 36.0 °F 74% 29.87 in 10.0 mi SSW 9.2 mph - N/A   Clear
11:35 PM 44.1 °F 38.6 °F 36.1 °F 74% 29.87 in 10.0 mi SSW 10.4 mph - N/A   Clear
11:55 PM 42.8 °F 38.0 °F 35.8 °F 76% 29.86 in 10.0 mi SSW 8.1 mph - N/A   Clear